Year,Month,Day,Hour,Minute,Value (Times are PST for temperature in C)
2015,04,08,00,00,7.40
2015,04,08,00,01,7.40
2015,04,08,00,02,7.40
2015,04,08,00,03,7.30
2015,04,08,00,04,7.30
2015,04,08,00,05,7.30
2015,04,08,00,06,7.30
2015,04,08,00,07,7.30
2015,04,08,00,08,7.20
2015,04,08,00,09,7.20
2015,04,08,00,10,7.20
2015,04,08,00,11,7.20
2015,04,08,00,12,7.20
2015,04,08,00,13,7.20
2015,04,08,00,14,7.20
2015,04,08,00,15,7.20
2015,04,08,00,16,7.20
2015,04,08,00,17,7.20
2015,04,08,00,18,7.10
2015,04,08,00,19,7.10
2015,04,08,00,20,7.10
2015,04,08,00,21,7.10
2015,04,08,00,22,7.10
2015,04,08,00,23,7.10
2015,04,08,00,24,7.00
2015,04,08,00,25,7.00
2015,04,08,00,26,7.00
2015,04,08,00,27,7.00
2015,04,08,00,28,7.00
2015,04,08,00,29,6.90
2015,04,08,00,30,6.90
2015,04,08,00,31,6.90
2015,04,08,00,32,6.90
2015,04,08,00,33,6.90
2015,04,08,00,34,6.80
2015,04,08,00,35,6.80
2015,04,08,00,36,6.80
2015,04,08,00,37,6.70
2015,04,08,00,38,6.70
2015,04,08,00,39,6.70
2015,04,08,00,40,6.70
2015,04,08,00,41,6.60
2015,04,08,00,42,6.60
2015,04,08,00,43,6.60
2015,04,08,00,44,6.50
2015,04,08,00,45,6.50
2015,04,08,00,46,6.50
2015,04,08,00,47,6.50
2015,04,08,00,48,6.50
2015,04,08,00,49,6.50
2015,04,08,00,50,6.50
2015,04,08,00,51,6.50
2015,04,08,00,52,6.50
2015,04,08,00,53,6.50
2015,04,08,00,54,6.60
2015,04,08,00,55,6.60
2015,04,08,00,56,6.60
2015,04,08,00,57,6.60
2015,04,08,00,58,6.60
2015,04,08,00,59,6.70
2015,04,08,01,00,6.60
2015,04,08,01,01,6.60
2015,04,08,01,02,6.70
2015,04,08,01,03,6.70
2015,04,08,01,04,6.70
2015,04,08,01,05,6.70
2015,04,08,01,06,6.70
2015,04,08,01,07,6.70
2015,04,08,01,08,6.70
2015,04,08,01,09,6.70
2015,04,08,01,10,6.60
2015,04,08,01,11,6.60
2015,04,08,01,12,6.60
2015,04,08,01,13,6.60
2015,04,08,01,14,6.50
2015,04,08,01,15,6.50
2015,04,08,01,16,6.40
2015,04,08,01,17,6.40
2015,04,08,01,18,6.40
2015,04,08,01,19,6.40
2015,04,08,01,20,6.30
2015,04,08,01,21,6.30
2015,04,08,01,22,6.30
2015,04,08,01,23,6.30
2015,04,08,01,24,6.30
2015,04,08,01,25,6.20
2015,04,08,01,26,6.20
2015,04,08,01,27,6.20
2015,04,08,01,28,6.10
2015,04,08,01,29,6.10
2015,04,08,01,30,6.00
2015,04,08,01,31,6.00
2015,04,08,01,32,5.90
2015,04,08,01,33,5.90
2015,04,08,01,34,5.90
2015,04,08,01,35,5.80
2015,04,08,01,36,5.80
2015,04,08,01,37,5.80
2015,04,08,01,38,5.70
2015,04,08,01,39,5.70
2015,04,08,01,40,5.70
2015,04,08,01,41,5.60
2015,04,08,01,42,5.60
2015,04,08,01,43,5.60
2015,04,08,01,44,5.50
2015,04,08,01,45,5.50
2015,04,08,01,46,5.50
2015,04,08,01,47,5.40
2015,04,08,01,48,5.40
2015,04,08,01,49,5.40
2015,04,08,01,50,5.40
2015,04,08,01,51,5.40
2015,04,08,01,52,5.40
2015,04,08,01,53,5.40
2015,04,08,01,54,5.40
2015,04,08,01,55,5.30
2015,04,08,01,56,5.30
2015,04,08,01,57,5.30
2015,04,08,01,58,5.30
2015,04,08,01,59,5.20
2015,04,08,02,00,5.20
2015,04,08,02,01,5.20
2015,04,08,02,02,5.20
2015,04,08,02,03,5.10
2015,04,08,02,04,5.10
2015,04,08,02,05,5.10
2015,04,08,02,06,5.10
2015,04,08,02,07,5.10
2015,04,08,02,08,5.00
2015,04,08,02,09,5.00
2015,04,08,02,10,5.00
2015,04,08,02,11,4.90
2015,04,08,02,12,4.90
2015,04,08,02,13,4.90
2015,04,08,02,14,4.90
2015,04,08,02,15,4.80
2015,04,08,02,16,4.80
2015,04,08,02,17,4.80
2015,04,08,02,18,4.80
2015,04,08,02,19,4.70
2015,04,08,02,20,4.70
2015,04,08,02,21,4.70
2015,04,08,02,22,4.70
2015,04,08,02,23,4.70
2015,04,08,02,24,4.70
2015,04,08,02,25,4.70
2015,04,08,02,26,4.70
2015,04,08,02,27,4.70
2015,04,08,02,28,4.70
2015,04,08,02,29,4.70
2015,04,08,02,30,4.70
2015,04,08,02,31,4.80
2015,04,08,02,32,4.80
2015,04,08,02,33,4.80
2015,04,08,02,34,4.80
2015,04,08,02,35,4.80
2015,04,08,02,36,4.70
2015,04,08,02,37,4.70
2015,04,08,02,38,4.70
2015,04,08,02,39,4.70
2015,04,08,02,40,4.70
2015,04,08,02,41,4.70
2015,04,08,02,42,4.70
2015,04,08,02,43,4.70
2015,04,08,02,44,4.60
2015,04,08,02,45,4.60
2015,04,08,02,46,4.60
2015,04,08,02,47,4.60
2015,04,08,02,48,4.60
2015,04,08,02,49,4.50
2015,04,08,02,50,4.50
2015,04,08,02,51,4.50
2015,04,08,02,52,4.40
2015,04,08,02,53,4.40
2015,04,08,02,54,4.40
2015,04,08,02,55,4.40
2015,04,08,02,56,4.40
2015,04,08,02,57,4.40
2015,04,08,02,58,4.40
2015,04,08,02,59,4.40
2015,04,08,03,00,4.40
2015,04,08,03,01,4.40
2015,04,08,03,02,4.50
2015,04,08,03,03,4.50
2015,04,08,03,04,4.40
2015,04,08,03,05,4.40
2015,04,08,03,06,4.40
2015,04,08,03,07,4.40
2015,04,08,03,08,4.40
2015,04,08,03,09,4.30
2015,04,08,03,10,4.30
2015,04,08,03,11,4.30
2015,04,08,03,12,4.30
2015,04,08,03,13,4.30
2015,04,08,03,14,4.30
2015,04,08,03,15,4.30
2015,04,08,03,16,4.30
2015,04,08,03,17,4.30
2015,04,08,03,18,4.30
2015,04,08,03,19,4.30
2015,04,08,03,20,4.20
2015,04,08,03,21,4.20
2015,04,08,03,22,4.20
2015,04,08,03,23,4.20
2015,04,08,03,24,4.20
2015,04,08,03,25,4.10
2015,04,08,03,26,4.10
2015,04,08,03,27,4.10
2015,04,08,03,28,4.10
2015,04,08,03,29,4.10
2015,04,08,03,30,4.10
2015,04,08,03,31,4.10
2015,04,08,03,32,4.10
2015,04,08,03,33,4.10
2015,04,08,03,34,4.00
2015,04,08,03,35,4.00
2015,04,08,03,36,4.00
2015,04,08,03,37,4.00
2015,04,08,03,38,4.00
2015,04,08,03,39,4.00
2015,04,08,03,40,4.00
2015,04,08,03,41,4.00
2015,04,08,03,42,4.00
2015,04,08,03,43,4.00
2015,04,08,03,44,4.00
2015,04,08,03,45,4.00
2015,04,08,03,46,4.00
2015,04,08,03,47,4.00
2015,04,08,03,48,4.00
2015,04,08,03,49,4.00
2015,04,08,03,50,4.00
2015,04,08,03,51,4.00
2015,04,08,03,52,4.00
2015,04,08,03,53,4.00
2015,04,08,03,54,3.90
2015,04,08,03,55,3.90
2015,04,08,03,56,3.90
2015,04,08,03,57,3.90
2015,04,08,03,58,3.90
2015,04,08,03,59,3.90
2015,04,08,04,00,3.80
2015,04,08,04,01,3.80
2015,04,08,04,02,3.80
2015,04,08,04,03,3.80
2015,04,08,04,04,3.80
2015,04,08,04,05,3.80
2015,04,08,04,06,3.80
2015,04,08,04,07,3.70
2015,04,08,04,08,3.70
2015,04,08,04,09,3.70
2015,04,08,04,10,3.70
2015,04,08,04,11,3.70
2015,04,08,04,12,3.70
2015,04,08,04,13,3.70
2015,04,08,04,14,3.80
2015,04,08,04,15,3.80
2015,04,08,04,16,3.80
2015,04,08,04,17,3.80
2015,04,08,04,18,3.80
2015,04,08,04,19,3.80
2015,04,08,04,20,3.80
2015,04,08,04,21,3.80
2015,04,08,04,22,3.70
2015,04,08,04,23,3.70
2015,04,08,04,24,3.80
2015,04,08,04,25,3.80
2015,04,08,04,26,3.80
2015,04,08,04,27,3.80
2015,04,08,04,28,3.80
2015,04,08,04,29,3.80
2015,04,08,04,30,3.80
2015,04,08,04,31,3.80
2015,04,08,04,32,3.80
2015,04,08,04,33,3.80
2015,04,08,04,34,3.80
2015,04,08,04,35,3.90
2015,04,08,04,36,3.90
2015,04,08,04,37,3.90
2015,04,08,04,38,3.90
2015,04,08,04,39,3.90
2015,04,08,04,40,3.90
2015,04,08,04,41,3.90
2015,04,08,04,42,4.00
2015,04,08,04,43,4.00
2015,04,08,04,44,4.00
2015,04,08,04,45,4.00
2015,04,08,04,46,4.00
2015,04,08,04,47,4.00
2015,04,08,04,48,4.00
2015,04,08,04,49,4.00
2015,04,08,04,50,3.90
2015,04,08,04,51,3.90
2015,04,08,04,52,3.90
2015,04,08,04,53,3.90
2015,04,08,04,54,3.90
2015,04,08,04,55,3.90
2015,04,08,04,56,3.90
2015,04,08,04,57,3.90
2015,04,08,04,58,3.90
2015,04,08,04,59,3.90
2015,04,08,05,00,4.00
2015,04,08,05,01,4.00
2015,04,08,05,02,4.00
2015,04,08,05,03,4.10
2015,04,08,05,04,4.10
2015,04,08,05,05,4.10
2015,04,08,05,06,4.20
2015,04,08,05,07,4.20
2015,04,08,05,08,4.20
2015,04,08,05,09,4.20
2015,04,08,05,10,4.20
2015,04,08,05,11,4.20
2015,04,08,05,12,4.20
2015,04,08,05,13,4.20
2015,04,08,05,14,4.20
2015,04,08,05,15,4.20
2015,04,08,05,16,4.20
2015,04,08,05,17,4.20
2015,04,08,05,18,4.30
2015,04,08,05,19,4.30
2015,04,08,05,20,4.30
2015,04,08,05,21,4.30
2015,04,08,05,22,4.40
2015,04,08,05,23,4.40
2015,04,08,05,24,4.40
2015,04,08,05,25,4.40
2015,04,08,05,26,4.40
2015,04,08,05,27,4.40
2015,04,08,05,28,4.40
2015,04,08,05,29,4.40
2015,04,08,05,30,4.40
2015,04,08,05,31,4.40
2015,04,08,05,32,4.50
2015,04,08,05,33,4.40
2015,04,08,05,34,4.40
2015,04,08,05,35,4.40
2015,04,08,05,36,4.40
2015,04,08,05,37,4.40
2015,04,08,05,38,4.40
2015,04,08,05,39,4.40
2015,04,08,05,40,4.40
2015,04,08,05,41,4.40
2015,04,08,05,42,4.40
2015,04,08,05,43,4.40
2015,04,08,05,44,4.40
2015,04,08,05,45,4.50
2015,04,08,05,46,4.50
2015,04,08,05,47,4.50
2015,04,08,05,48,4.50
2015,04,08,05,49,4.50
2015,04,08,05,50,4.50
2015,04,08,05,51,4.50
2015,04,08,05,52,4.50
2015,04,08,05,53,4.50
2015,04,08,05,54,4.50
2015,04,08,05,55,4.50
2015,04,08,05,56,4.50
2015,04,08,05,57,4.50
2015,04,08,05,58,4.50
2015,04,08,05,59,4.50
2015,04,08,06,00,4.50
2015,04,08,06,01,4.50
2015,04,08,06,02,4.60
2015,04,08,06,03,4.60
2015,04,08,06,04,4.60
2015,04,08,06,05,4.60
2015,04,08,06,06,4.60
2015,04,08,06,07,4.70
2015,04,08,06,08,4.70
2015,04,08,06,09,4.70
2015,04,08,06,10,4.70
2015,04,08,06,11,4.70
2015,04,08,06,12,4.70
2015,04,08,06,13,4.70
2015,04,08,06,14,4.70
2015,04,08,06,15,4.70
2015,04,08,06,16,4.70
2015,04,08,06,17,4.80
2015,04,08,06,18,4.80
2015,04,08,06,19,4.80
2015,04,08,06,20,4.80
2015,04,08,06,21,4.80
2015,04,08,06,22,4.90
2015,04,08,06,23,4.90
2015,04,08,06,24,4.90
2015,04,08,06,25,5.00
2015,04,08,06,26,5.00
2015,04,08,06,27,5.00
2015,04,08,06,28,5.00
2015,04,08,06,29,5.10
2015,04,08,06,30,5.10
2015,04,08,06,31,5.10
2015,04,08,06,32,5.10
2015,04,08,06,33,5.10
2015,04,08,06,34,5.10
2015,04,08,06,35,5.10
2015,04,08,06,36,5.10
2015,04,08,06,37,5.20
2015,04,08,06,38,5.20
2015,04,08,06,39,5.20
2015,04,08,06,40,5.20
2015,04,08,06,41,5.20
2015,04,08,06,42,5.20
2015,04,08,06,43,5.20
2015,04,08,06,44,5.20
2015,04,08,06,45,5.20
2015,04,08,06,46,5.20
2015,04,08,06,47,5.20
2015,04,08,06,48,5.20
2015,04,08,06,49,5.30
2015,04,08,06,50,5.30
2015,04,08,06,51,5.30
2015,04,08,06,52,5.30
2015,04,08,06,53,5.30
2015,04,08,06,54,5.30
2015,04,08,06,55,5.30
2015,04,08,06,56,5.30
2015,04,08,06,57,5.30
2015,04,08,06,58,5.30
2015,04,08,06,59,5.30
2015,04,08,07,00,5.30
2015,04,08,07,01,5.30
2015,04,08,07,02,5.30
2015,04,08,07,03,5.30
2015,04,08,07,04,5.40
2015,04,08,07,05,5.40
2015,04,08,07,06,5.40
2015,04,08,07,07,5.40
2015,04,08,07,08,5.40
2015,04,08,07,09,5.40
2015,04,08,07,10,5.40
2015,04,08,07,11,5.50
2015,04,08,07,12,5.50
2015,04,08,07,13,5.50
2015,04,08,07,14,5.60
2015,04,08,07,15,5.60
2015,04,08,07,16,5.60
2015,04,08,07,17,5.70
2015,04,08,07,18,5.70
2015,04,08,07,19,5.70
2015,04,08,07,20,5.80
2015,04,08,07,21,5.80
2015,04,08,07,22,5.80
2015,04,08,07,23,5.80
2015,04,08,07,24,5.80
2015,04,08,07,25,5.90
2015,04,08,07,26,5.90
2015,04,08,07,27,5.90
2015,04,08,07,28,5.90
2015,04,08,07,29,5.90
2015,04,08,07,30,5.90
2015,04,08,07,31,5.90
2015,04,08,07,32,5.90
2015,04,08,07,33,6.00
2015,04,08,07,34,6.00
2015,04,08,07,35,6.00
2015,04,08,07,36,6.00
2015,04,08,07,37,6.00
2015,04,08,07,38,6.10
2015,04,08,07,39,6.10
2015,04,08,07,40,6.10
2015,04,08,07,41,6.10
2015,04,08,07,42,6.10
2015,04,08,07,43,6.20
2015,04,08,07,44,6.20
2015,04,08,07,45,6.30
2015,04,08,07,46,6.30
2015,04,08,07,47,6.30
2015,04,08,07,48,6.40
2015,04,08,07,49,6.40
2015,04,08,07,50,6.50
2015,04,08,07,51,6.50
2015,04,08,07,52,6.60
2015,04,08,07,53,6.60
2015,04,08,07,54,6.70
2015,04,08,07,55,6.70
2015,04,08,07,56,6.70
2015,04,08,07,57,6.80
2015,04,08,07,58,6.80
2015,04,08,07,59,6.80
2015,04,08,08,00,6.90
2015,04,08,08,01,6.90
2015,04,08,08,02,6.90
2015,04,08,08,03,7.00
2015,04,08,08,04,7.00
2015,04,08,08,05,7.00
2015,04,08,08,06,7.10
2015,04,08,08,07,7.10
2015,04,08,08,08,7.10
2015,04,08,08,09,7.10
2015,04,08,08,10,7.20
2015,04,08,08,11,7.20
2015,04,08,08,12,7.20
2015,04,08,08,13,7.20
2015,04,08,08,14,7.20
2015,04,08,08,15,7.20
2015,04,08,08,16,7.30
2015,04,08,08,17,7.30
2015,04,08,08,18,7.30
2015,04,08,08,19,7.40
2015,04,08,08,20,7.40
2015,04,08,08,21,7.50
2015,04,08,08,22,7.50
2015,04,08,08,23,7.60
2015,04,08,08,24,7.60
2015,04,08,08,25,7.60
2015,04,08,08,26,7.70
2015,04,08,08,27,7.70
2015,04,08,08,28,7.80
2015,04,08,08,29,7.80
2015,04,08,08,30,7.90
2015,04,08,08,31,7.90
2015,04,08,08,32,8.00
2015,04,08,08,33,8.10
2015,04,08,08,34,8.10
2015,04,08,08,35,8.20
2015,04,08,08,36,8.20
2015,04,08,08,37,8.30
2015,04,08,08,38,8.40
2015,04,08,08,39,8.40
2015,04,08,08,40,8.50
2015,04,08,08,41,8.60
2015,04,08,08,42,8.60
2015,04,08,08,43,8.70
2015,04,08,08,44,8.70
2015,04,08,08,45,8.80
2015,04,08,08,46,8.80
2015,04,08,08,47,8.90
2015,04,08,08,48,9.00
2015,04,08,08,49,9.00
2015,04,08,08,50,9.10
2015,04,08,08,51,9.20
2015,04,08,08,52,9.30
2015,04,08,08,53,9.30
2015,04,08,08,54,9.40
2015,04,08,08,55,9.40
2015,04,08,08,56,9.50
2015,04,08,08,57,9.60
2015,04,08,08,58,9.60
2015,04,08,08,59,9.70
2015,04,08,09,00,9.70
2015,04,08,09,01,9.80
2015,04,08,09,02,9.80
2015,04,08,09,03,9.90
2015,04,08,09,04,10.00
2015,04,08,09,05,10.10
2015,04,08,09,06,10.10
2015,04,08,09,07,10.20
2015,04,08,09,08,10.30
2015,04,08,09,09,10.40
2015,04,08,09,10,10.50
2015,04,08,09,11,10.50
2015,04,08,09,12,10.60
2015,04,08,09,13,10.70
2015,04,08,09,14,10.70
2015,04,08,09,15,10.80
2015,04,08,09,16,10.80
2015,04,08,09,17,10.80
2015,04,08,09,18,10.90
2015,04,08,09,19,10.90
2015,04,08,09,20,10.90
2015,04,08,09,21,11.00
2015,04,08,09,22,11.10
2015,04,08,09,23,11.10
2015,04,08,09,24,11.10
2015,04,08,09,25,11.10
2015,04,08,09,26,11.20
2015,04,08,09,27,11.20
2015,04,08,09,28,11.30
2015,04,08,09,29,11.30
2015,04,08,09,30,11.40
2015,04,08,09,31,11.50
2015,04,08,09,32,11.60
2015,04,08,09,33,11.70
2015,04,08,09,34,11.80
2015,04,08,09,35,11.80
2015,04,08,09,36,11.90
2015,04,08,09,37,11.90
2015,04,08,09,38,11.90
2015,04,08,09,39,11.90
2015,04,08,09,40,11.90
2015,04,08,09,41,11.90
2015,04,08,09,42,11.90
2015,04,08,09,43,11.90
2015,04,08,09,44,11.90
2015,04,08,09,45,11.90
2015,04,08,09,46,11.90
2015,04,08,09,47,11.90
2015,04,08,09,48,11.90
2015,04,08,09,49,11.90
2015,04,08,09,50,11.90
2015,04,08,09,51,11.90
2015,04,08,09,52,11.90
2015,04,08,09,53,11.90
2015,04,08,09,54,11.90
2015,04,08,09,55,11.90
2015,04,08,09,56,11.90
2015,04,08,09,57,11.90
2015,04,08,09,58,11.90
2015,04,08,09,59,11.90
2015,04,08,10,00,11.90
2015,04,08,10,01,11.80
2015,04,08,10,02,11.90
2015,04,08,10,03,11.90
2015,04,08,10,04,11.90
2015,04,08,10,05,11.90
2015,04,08,10,06,12.00
2015,04,08,10,07,12.00
2015,04,08,10,08,12.10
2015,04,08,10,09,12.10
2015,04,08,10,10,12.20
2015,04,08,10,11,12.20
2015,04,08,10,12,12.20
2015,04,08,10,13,12.30
2015,04,08,10,14,12.30
2015,04,08,10,15,12.30
2015,04,08,10,16,12.30
2015,04,08,10,17,12.20
2015,04,08,10,18,12.20
2015,04,08,10,19,12.20
2015,04,08,10,20,12.20
2015,04,08,10,21,12.20
2015,04,08,10,22,12.20
2015,04,08,10,23,12.20
2015,04,08,10,24,12.30
2015,04,08,10,25,12.30
2015,04,08,10,26,12.30
2015,04,08,10,27,12.30
2015,04,08,10,28,12.30
2015,04,08,10,29,12.30
2015,04,08,10,30,12.30
2015,04,08,10,31,12.30
2015,04,08,10,32,12.30
2015,04,08,10,33,12.40
2015,04,08,10,34,12.40
2015,04,08,10,35,12.50
2015,04,08,10,36,12.50
2015,04,08,10,37,12.60
2015,04,08,10,38,12.60
2015,04,08,10,39,12.70
2015,04,08,10,40,12.70
2015,04,08,10,41,12.70
2015,04,08,10,42,12.70
2015,04,08,10,43,12.70
2015,04,08,10,44,12.60
2015,04,08,10,45,12.60
2015,04,08,10,46,12.70
2015,04,08,10,47,12.70
2015,04,08,10,48,12.70
2015,04,08,10,49,12.80
2015,04,08,10,50,12.80
2015,04,08,10,51,12.80
2015,04,08,10,52,12.80
2015,04,08,10,53,12.90
2015,04,08,10,54,12.90
2015,04,08,10,55,12.90
2015,04,08,10,56,12.90
2015,04,08,10,57,13.00
2015,04,08,10,58,13.00
2015,04,08,10,59,13.00
2015,04,08,11,00,13.10
2015,04,08,11,01,13.10
2015,04,08,11,02,13.20
2015,04,08,11,03,13.20
2015,04,08,11,04,13.20
2015,04,08,11,05,13.20
2015,04,08,11,06,13.20
2015,04,08,11,07,13.20
2015,04,08,11,08,13.20
2015,04,08,11,09,13.30
2015,04,08,11,10,13.30
2015,04,08,11,11,13.30
2015,04,08,11,12,13.30
2015,04,08,11,13,13.30
2015,04,08,11,14,13.30
2015,04,08,11,15,13.40
2015,04,08,11,16,13.40
2015,04,08,11,17,13.40
2015,04,08,11,18,13.40
2015,04,08,11,19,13.50
2015,04,08,11,20,13.50
2015,04,08,11,21,13.60
2015,04,08,11,22,13.70
2015,04,08,11,23,13.70
2015,04,08,11,24,13.80
2015,04,08,11,25,13.90
2015,04,08,11,26,13.90
2015,04,08,11,27,14.00
2015,04,08,11,28,14.00
2015,04,08,11,29,14.00
2015,04,08,11,30,14.00
2015,04,08,11,31,14.00
2015,04,08,11,32,14.00
2015,04,08,11,33,14.10
2015,04,08,11,34,14.10
2015,04,08,11,35,14.20
2015,04,08,11,36,14.20
2015,04,08,11,37,14.20
2015,04,08,11,38,14.20
2015,04,08,11,39,14.20
2015,04,08,11,40,14.30
2015,04,08,11,41,14.30
2015,04,08,11,42,14.40
2015,04,08,11,43,14.50
2015,04,08,11,44,14.40
2015,04,08,11,45,14.40
2015,04,08,11,46,14.20
2015,04,08,11,47,14.00
2015,04,08,11,48,13.90
2015,04,08,11,49,13.80
2015,04,08,11,50,13.80
2015,04,08,11,51,13.70
2015,04,08,11,52,13.50
2015,04,08,11,53,13.40
2015,04,08,11,54,13.30
2015,04,08,11,55,13.30
2015,04,08,11,56,13.20
2015,04,08,11,57,13.10
2015,04,08,11,58,13.10
2015,04,08,11,59,13.20
2015,04,08,12,00,13.30
2015,04,08,12,01,13.40
2015,04,08,12,02,13.40
2015,04,08,12,03,13.30
2015,04,08,12,04,13.30
2015,04,08,12,05,13.40
2015,04,08,12,06,13.40
2015,04,08,12,07,13.50
2015,04,08,12,08,13.60
2015,04,08,12,09,13.70
2015,04,08,12,10,13.80
2015,04,08,12,11,13.80
2015,04,08,12,12,13.70
2015,04,08,12,13,13.60
2015,04,08,12,14,13.60
2015,04,08,12,15,13.60
2015,04,08,12,16,13.70
2015,04,08,12,17,13.80
2015,04,08,12,18,13.90
2015,04,08,12,19,13.90
2015,04,08,12,20,13.90
2015,04,08,12,21,13.90
2015,04,08,12,22,13.90
2015,04,08,12,23,13.90
2015,04,08,12,24,13.90
2015,04,08,12,25,13.90
2015,04,08,12,26,14.00
2015,04,08,12,27,14.10
2015,04,08,12,28,14.20
2015,04,08,12,29,14.30
2015,04,08,12,30,14.40
2015,04,08,12,31,14.50
2015,04,08,12,32,14.50
2015,04,08,12,33,14.60
2015,04,08,12,34,14.60
2015,04,08,12,35,14.60
2015,04,08,12,36,14.50
2015,04,08,12,37,14.50
2015,04,08,12,38,14.50
2015,04,08,12,39,14.50
2015,04,08,12,40,14.40
2015,04,08,12,41,14.40
2015,04,08,12,42,14.30
2015,04,08,12,43,14.40
2015,04,08,12,44,14.40
2015,04,08,12,45,14.40
2015,04,08,12,46,14.40
2015,04,08,12,47,14.50
2015,04,08,12,48,14.60
2015,04,08,12,49,14.50
2015,04,08,12,50,14.50
2015,04,08,12,51,14.40
2015,04,08,12,52,14.40
2015,04,08,12,53,14.50
2015,04,08,12,54,14.60
2015,04,08,12,55,14.60
2015,04,08,12,56,14.70
2015,04,08,12,57,14.80
2015,04,08,12,58,14.80
2015,04,08,12,59,14.80
2015,04,08,13,00,14.80
2015,04,08,13,01,14.80
2015,04,08,13,02,14.70
2015,04,08,13,03,14.70
2015,04,08,13,04,14.60
2015,04,08,13,05,14.60
2015,04,08,13,06,14.60
2015,04,08,13,07,14.60
2015,04,08,13,08,14.70
2015,04,08,13,09,14.70
2015,04,08,13,10,14.60
2015,04,08,13,11,14.50
2015,04,08,13,12,14.40
2015,04,08,13,13,14.30
2015,04,08,13,14,14.20
2015,04,08,13,15,14.20
2015,04,08,13,16,14.20
2015,04,08,13,17,14.20
2015,04,08,13,18,14.20
2015,04,08,13,19,14.20
2015,04,08,13,20,14.20
2015,04,08,13,21,14.20
2015,04,08,13,22,14.20
2015,04,08,13,23,14.20
2015,04,08,13,24,14.30
2015,04,08,13,25,14.30
2015,04,08,13,26,14.40
2015,04,08,13,27,14.40
2015,04,08,13,28,14.50
2015,04,08,13,29,14.50
2015,04,08,13,30,14.70
2015,04,08,13,31,14.80
2015,04,08,13,32,14.70
2015,04,08,13,33,14.70
2015,04,08,13,34,14.70
2015,04,08,13,35,14.70
2015,04,08,13,36,14.70
2015,04,08,13,37,14.70
2015,04,08,13,38,14.60
2015,04,08,13,39,14.60
2015,04,08,13,40,14.60
2015,04,08,13,41,14.70
2015,04,08,13,42,14.70
2015,04,08,13,43,14.70
2015,04,08,13,44,14.70
2015,04,08,13,45,14.80
2015,04,08,13,46,14.80
2015,04,08,13,47,14.80
2015,04,08,13,48,14.70
2015,04,08,13,49,14.60
2015,04,08,13,50,14.60
2015,04,08,13,51,14.60
2015,04,08,13,52,14.60
2015,04,08,13,53,14.60
2015,04,08,13,54,14.50
2015,04,08,13,55,14.50
2015,04,08,13,56,14.40
2015,04,08,13,57,14.40
2015,04,08,13,58,14.40
2015,04,08,13,59,14.40
2015,04,08,14,00,14.30
2015,04,08,14,01,14.30
2015,04,08,14,02,14.30
2015,04,08,14,03,14.30
2015,04,08,14,04,14.30
2015,04,08,14,05,14.30
2015,04,08,14,06,14.20
2015,04,08,14,07,14.20
2015,04,08,14,08,14.20
2015,04,08,14,09,14.10
2015,04,08,14,10,14.10
2015,04,08,14,11,14.10
2015,04,08,14,12,14.10
2015,04,08,14,13,14.20
2015,04,08,14,14,14.40
2015,04,08,14,15,14.40
2015,04,08,14,16,14.30
2015,04,08,14,17,14.30
2015,04,08,14,18,14.40
2015,04,08,14,19,14.40
2015,04,08,14,20,14.40
2015,04,08,14,21,14.40
2015,04,08,14,22,14.40
2015,04,08,14,23,14.50
2015,04,08,14,24,14.40
2015,04,08,14,25,14.40
2015,04,08,14,26,14.30
2015,04,08,14,27,14.20
2015,04,08,14,28,14.20
2015,04,08,14,29,14.20
2015,04,08,14,30,14.30
2015,04,08,14,31,14.30
2015,04,08,14,32,14.40
2015,04,08,14,33,14.40
2015,04,08,14,34,14.40
2015,04,08,14,35,14.40
2015,04,08,14,36,14.40
2015,04,08,14,37,14.40
2015,04,08,14,38,14.50
2015,04,08,14,39,14.50
2015,04,08,14,40,14.40
2015,04,08,14,41,14.50
2015,04,08,14,42,14.60
2015,04,08,14,43,14.60
2015,04,08,14,44,14.60
2015,04,08,14,45,14.60
2015,04,08,14,46,14.60
2015,04,08,14,47,14.60
2015,04,08,14,48,14.70
2015,04,08,14,49,14.70
2015,04,08,14,50,14.60
2015,04,08,14,51,14.60
2015,04,08,14,52,14.50
2015,04,08,14,53,14.40
2015,04,08,14,54,14.40
2015,04,08,14,55,14.30
2015,04,08,14,56,14.30
2015,04,08,14,57,14.30
2015,04,08,14,58,14.20
2015,04,08,14,59,14.10
2015,04,08,15,00,14.00
2015,04,08,15,01,14.00
2015,04,08,15,02,13.90
2015,04,08,15,03,13.80
2015,04,08,15,04,13.80
2015,04,08,15,05,13.80
2015,04,08,15,06,13.80
2015,04,08,15,07,13.80
2015,04,08,15,08,13.80
2015,04,08,15,09,13.80
2015,04,08,15,10,13.80
2015,04,08,15,11,13.90
2015,04,08,15,12,14.00
2015,04,08,15,13,14.00
2015,04,08,15,14,13.90
2015,04,08,15,15,13.90
2015,04,08,15,16,13.90
2015,04,08,15,17,14.00
2015,04,08,15,18,14.00
2015,04,08,15,19,14.10
2015,04,08,15,20,14.10
2015,04,08,15,21,14.20
2015,04,08,15,22,14.30
2015,04,08,15,23,14.30
2015,04,08,15,24,14.30
2015,04,08,15,25,14.30
2015,04,08,15,26,14.30
2015,04,08,15,27,14.30
2015,04,08,15,28,14.20
2015,04,08,15,29,14.20
2015,04,08,15,30,14.10
2015,04,08,15,31,14.10
2015,04,08,15,32,14.00
2015,04,08,15,33,14.00
2015,04,08,15,34,14.00
2015,04,08,15,35,13.90
2015,04,08,15,36,13.80
2015,04,08,15,37,13.70
2015,04,08,15,38,13.60
2015,04,08,15,39,13.60
2015,04,08,15,40,13.60
2015,04,08,15,41,13.60
2015,04,08,15,42,13.60
2015,04,08,15,43,13.60
2015,04,08,15,44,13.70
2015,04,08,15,45,13.80
2015,04,08,15,46,13.90
2015,04,08,15,47,14.00
2015,04,08,15,48,14.00
2015,04,08,15,49,14.10
2015,04,08,15,50,14.10
2015,04,08,15,51,14.10
2015,04,08,15,52,14.00
2015,04,08,15,53,13.80
2015,04,08,15,54,13.70
2015,04,08,15,55,13.60
2015,04,08,15,56,13.60
2015,04,08,15,57,13.60
2015,04,08,15,58,13.50
2015,04,08,15,59,13.50
2015,04,08,16,00,13.50
2015,04,08,16,01,13.60
2015,04,08,16,02,13.60
2015,04,08,16,03,13.70
2015,04,08,16,04,13.60
2015,04,08,16,05,13.60
2015,04,08,16,06,13.60
2015,04,08,16,07,13.60
2015,04,08,16,08,13.60
2015,04,08,16,09,13.50
2015,04,08,16,10,13.50
2015,04,08,16,11,13.60
2015,04,08,16,12,13.60
2015,04,08,16,13,13.60
2015,04,08,16,14,13.60
2015,04,08,16,15,13.50
2015,04,08,16,16,13.40
2015,04,08,16,17,13.40
2015,04,08,16,18,13.40
2015,04,08,16,19,13.50
2015,04,08,16,20,13.50
2015,04,08,16,21,13.60
2015,04,08,16,22,13.60
2015,04,08,16,23,13.70
2015,04,08,16,24,13.80
2015,04,08,16,25,13.80
2015,04,08,16,26,13.90
2015,04,08,16,27,14.00
2015,04,08,16,28,14.10
2015,04,08,16,29,14.20
2015,04,08,16,30,14.20
2015,04,08,16,31,14.30
2015,04,08,16,32,14.30
2015,04,08,16,33,14.40
2015,04,08,16,34,14.60
2015,04,08,16,35,14.60
2015,04,08,16,36,14.70
2015,04,08,16,37,14.80
2015,04,08,16,38,14.90
2015,04,08,16,39,15.00
2015,04,08,16,40,15.00
2015,04,08,16,41,15.20
2015,04,08,16,42,15.30
2015,04,08,16,43,15.30
2015,04,08,16,44,15.30
2015,04,08,16,45,15.30
2015,04,08,16,46,15.30
2015,04,08,16,47,15.30
2015,04,08,16,48,15.40
2015,04,08,16,49,15.50
2015,04,08,16,50,15.50
2015,04,08,16,51,15.60
2015,04,08,16,52,15.60
2015,04,08,16,53,15.70
2015,04,08,16,54,15.60
2015,04,08,16,55,15.60
2015,04,08,16,56,15.60
2015,04,08,16,57,15.70
2015,04,08,16,58,15.70
2015,04,08,16,59,15.60
2015,04,08,17,00,15.60
2015,04,08,17,01,15.60
2015,04,08,17,02,15.60
2015,04,08,17,03,15.60
2015,04,08,17,04,15.60
2015,04,08,17,05,15.60
2015,04,08,17,06,15.60
2015,04,08,17,07,15.60
2015,04,08,17,08,15.60
2015,04,08,17,09,15.60
2015,04,08,17,10,15.60
2015,04,08,17,11,15.60
2015,04,08,17,12,15.60
2015,04,08,17,13,15.60
2015,04,08,17,14,15.60
2015,04,08,17,15,15.60
2015,04,08,17,16,15.70
2015,04,08,17,17,15.70
2015,04,08,17,18,15.80
2015,04,08,17,19,15.80
2015,04,08,17,20,15.80
2015,04,08,17,21,15.90
2015,04,08,17,22,15.90
2015,04,08,17,23,16.00
2015,04,08,17,24,16.10
2015,04,08,17,25,16.10
2015,04,08,17,26,16.20
2015,04,08,17,27,16.20
2015,04,08,17,28,16.30
2015,04,08,17,29,16.30
2015,04,08,17,30,16.30
2015,04,08,17,31,16.30
2015,04,08,17,32,16.30
2015,04,08,17,33,16.30
2015,04,08,17,34,16.30
2015,04,08,17,35,16.30
2015,04,08,17,36,16.30
2015,04,08,17,37,16.40
2015,04,08,17,38,16.40
2015,04,08,17,39,16.40
2015,04,08,17,40,16.40
2015,04,08,17,41,16.40
2015,04,08,17,42,16.40
2015,04,08,17,43,16.40